When you browse on this site, cookies collect data to enhance your experience and personalize the content and advertising you see.
Visit our Privacy Policy to learn more. By continuing to use the site, you agree to this use of cookies and data.
  • în România
  • Lista ţărilor
  • Pe 7 zile
  • Temperatura apei
  • Meteo pe hartă
  • Widget-uri
  • user-avatar
    Intrare

    Meteo pe oră la Quito

    Astăzi, 1 Iunie, Luni

    Timp Temperatura Precipitaţii Vânt Presiune Umiditate
    00:00 +14°C° 0 mm 1 m/s 624 mmHg 63%
    01:00 +13°C° 0 mm 1 m/s 624 mmHg 66%
    02:00 +13°C° 0 mm 1 m/s 623 mmHg 69%
    03:00 +12°C° 0 mm 1 m/s 623 mmHg 72%
    04:00 +12°C° 0 mm 1 m/s 623 mmHg 75%
    05:00 +12°C° 0 mm 1 m/s 623 mmHg 74%
    06:00 +13°C° 0 mm 1 m/s 624 mmHg 72%
    07:00 +13°C° 0 mm 1 m/s 625 mmHg 71%
    08:00 +16°C° 0 mm 2 m/s 625 mmHg 60%
    09:00 +19°C° 0 mm 3 m/s 626 mmHg 50%
    10:00 +22°C° 0 mm 4 m/s 627 mmHg 40%
    11:00 +23°C° 0 mm 4 m/s 626 mmHg 37%
    12:00 +25°C° 0 mm 3 m/s 626 mmHg 34%
    13:00 +26°C° 0 mm 3 m/s 626 mmHg 31%
    14:00 +26°C° 0 mm 3 m/s 626 mmHg 31%
    15:00 +26°C° 0 mm 3 m/s 625 mmHg 32%
    16:00 +26°C° 0 mm 2 m/s 625 mmHg 33%
    17:00 +23°C° 0 mm 2 m/s 624 mmHg 38%
    18:00 +20°C° 0 mm 1 m/s 624 mmHg 44%
    19:00 +16°C° 0 mm 0 m/s 623 mmHg 49%
    20:00 +18°C° 0 mm 1 m/s 624 mmHg 50%
    21:00 +16°C° 0 mm 1 m/s 624 mmHg 50%
    22:00 +16°C° 0 mm 1 m/s 624 mmHg 51%
    23:00 +16°C° 0 mm 1 m/s 624 mmHg 54%

    Mâine, 2 Iunie, Marţi

    Timp Temperatura Precipitaţii Vânt Presiune Umiditate
    00:00 +16°C° 0 mm 1 m/s 624 mmHg 57%
    01:00 +16°C° 0 mm 1 m/s 624 mmHg 61%
    02:00 +15°C° 0 mm 1 m/s 624 mmHg 64%
    03:00 +14°C° 0 mm 1 m/s 624 mmHg 67%
    04:00 +14°C° 0 mm 1 m/s 623 mmHg 70%
    05:00 +14°C° 0 mm 1 m/s 624 mmHg 71%
    06:00 +14°C° 0 mm 1 m/s 624 mmHg 71%
    07:00 +14°C° 0 mm 1 m/s 624 mmHg 72%
    08:00 +17°C° 0 mm 2 m/s 625 mmHg 61%
    09:00 +20°C° 0 mm 3 m/s 626 mmHg 50%
    10:00 +24°C° 0 mm 3 m/s 627 mmHg 39%
    11:00 +25°C° 0 mm 3 m/s 626 mmHg 35%
    12:00 +26°C° 0 mm 3 m/s 626 mmHg 32%
    13:00 +27°C° 0 mm 2 m/s 626 mmHg 28%
    14:00 +27°C° 0 mm 2 m/s 625 mmHg 28%
    15:00 +26°C° 0 mm 2 m/s 625 mmHg 29%
    16:00 +26°C° 0 mm 2 m/s 624 mmHg 29%
    17:00 +23°C° 0 mm 2 m/s 624 mmHg 34%
    18:00 +21°C° 0 mm 1 m/s 623 mmHg 39%
    19:00 +18°C° 0 mm 1 m/s 623 mmHg 44%
    20:00 +18°C° 0 mm 1 m/s 623 mmHg 44%
    21:00 +18°C° 0 mm 1 m/s 623 mmHg 45%
    22:00 +16°C° 0 mm 1 m/s 624 mmHg 45%
    23:00 +16°C° 0 mm 1 m/s 624 mmHg 47%

    Poimâine, 3 Iunie, Miercuri

    Timp Temperatura Precipitaţii Vânt Presiune Umiditate
    00:00 +16°C° 0 mm 1 m/s 624 mmHg 48%
    01:00 +16°C° 0 mm 1 m/s 623 mmHg 50%
    02:00 +15°C° 0 mm 1 m/s 623 mmHg 54%
    03:00 +15°C° 0 mm 1 m/s 623 mmHg 58%
    04:00 +14°C° 0 mm 1 m/s 622 mmHg 62%
    05:00 +14°C° 0 mm 1 m/s 622 mmHg 62%
    06:00 +14°C° 0 mm 1 m/s 623 mmHg 62%
    07:00 +14°C° 0 mm 1 m/s 623 mmHg 63%
    08:00 +17°C° 0 mm 2 m/s 624 mmHg 54%
    09:00 +20°C° 0 mm 3 m/s 625 mmHg 45%
    10:00 +22°C° 0 mm 4 m/s 626 mmHg 36%
    11:00 +25°C° 0 mm 3 m/s 625 mmHg 33%
    12:00 +26°C° 0 mm 2 m/s 625 mmHg 31%
    13:00 +27°C° 0 mm 2 m/s 625 mmHg 28%
    14:00 +26°C° 0 mm 2 m/s 624 mmHg 29%
    15:00 +26°C° 0 mm 1 m/s 623 mmHg 30%
    16:00 +25°C° 0 mm 1 m/s 623 mmHg 31%
    17:00 +23°C° 0 mm 1 m/s 623 mmHg 35%
    18:00 +21°C° 0 mm 1 m/s 622 mmHg 39%
    19:00 +17°C° 0 mm 0 m/s 622 mmHg 43%
    20:00 +19°C° 0 mm 1 m/s 623 mmHg 42%
    21:00 +19°C° 0 mm 1 m/s 623 mmHg 41%
    22:00 +19°C° 0 mm 1 m/s 624 mmHg 40%
    23:00 +19°C° 0 mm 1 m/s 623 mmHg 40%

    4 Iunie, Joi

    Timp Temperatura Precipitaţii Vânt Presiune Umiditate
    00:00 +17°C° 0 mm 0 m/s 623 mmHg 40%
    01:00 +17°C° 0 mm 0 m/s 623 mmHg 40%
    02:00 +18°C° 0 mm 1 m/s 623 mmHg 43%
    03:00 +16°C° 0 mm 1 m/s 622 mmHg 46%
    04:00 +15°C° 0 mm 1 m/s 622 mmHg 49%
    05:00 +15°C° 0 mm 1 m/s 623 mmHg 51%
    06:00 +14°C° 0 mm 0 m/s 623 mmHg 52%
    07:00 +14°C° 0 mm 0 m/s 623 mmHg 54%
    08:00 +18°C° 0 mm 1 m/s 624 mmHg 46%
    09:00 +20°C° 0 mm 2 m/s 625 mmHg 38%
    10:00 +24°C° 0 mm 3 m/s 626 mmHg 29%
    11:00 +25°C° 0 mm 3 m/s 626 mmHg 28%
    12:00 +27°C° 0 mm 2 m/s 625 mmHg 26%
    13:00 +28°C° 0 mm 2 m/s 625 mmHg 24%
    14:00 +28°C° 0 mm 1 m/s 625 mmHg 24%
    15:00 +27°C° 0 mm 1 m/s 624 mmHg 25%
    16:00 +27°C° 0 mm 1 m/s 624 mmHg 25%
    17:00 +24°C° 0 mm 1 m/s 623 mmHg 32%
    18:00 +21°C° 0 mm 1 m/s 622 mmHg 39%
    19:00 +16°C° 0 mm 0 m/s 622 mmHg 46%
    20:00 +15°C° 0 mm 0 m/s 622 mmHg 46%
    21:00 +15°C° 0 mm 0 m/s 622 mmHg 47%
    22:00 +14°C° 0 mm 0 m/s 623 mmHg 47%
    23:00 +14°C° 0 mm 0 m/s 623 mmHg 48%

    5 Iunie, Vineri

    Timp Temperatura Precipitaţii Vânt Presiune Umiditate
    00:00 +14°C° 0 mm 0 m/s 623 mmHg 48%
    01:00 +14°C° 0 mm 0 m/s 623 mmHg 48%
    02:00 +14°C° 0 mm 1 m/s 623 mmHg 50%
    03:00 +13°C° 0 mm 1 m/s 622 mmHg 53%
    04:00 +13°C° 0 mm 1 m/s 622 mmHg 55%
    05:00 +13°C° 0 mm 1 m/s 623 mmHg 54%
    06:00 +13°C° 0 mm 1 m/s 623 mmHg 54%
    07:00 +14°C° 0 mm 1 m/s 624 mmHg 54%
    08:00 +17°C° 0 mm 2 m/s 625 mmHg 46%
    09:00 +20°C° 0 mm 2 m/s 626 mmHg 39%
    10:00 +24°C° 0 mm 3 m/s 627 mmHg 31%
    11:00 +25°C° 0 mm 3 m/s 626 mmHg 29%
    12:00 +27°C° 0 mm 2 m/s 626 mmHg 26%
    13:00 +28°C° 0 mm 2 m/s 626 mmHg 24%
    14:00 +28°C° 0 mm 2 m/s 626 mmHg 24%
    15:00 +27°C° 0 mm 2 m/s 625 mmHg 24%
    16:00 +27°C° 0 mm 2 m/s 625 mmHg 24%
    17:00 +24°C° 0 mm 1 m/s 624 mmHg 29%
    18:00 +21°C° 0 mm 1 m/s 624 mmHg 34%
    19:00 +19°C° 0 mm 1 m/s 623 mmHg 38%
    20:00 +18°C° 0 mm 1 m/s 623 mmHg 38%
    21:00 +18°C° 0 mm 1 m/s 624 mmHg 39%
    22:00 +16°C° 0 mm 1 m/s 624 mmHg 39%
    23:00 +15°C° 0 mm 1 m/s 624 mmHg 42%

    6 Iunie, Sâmbătă

    Timp Temperatura Precipitaţii Vânt Presiune Umiditate
    00:00 +15°C° 0 mm 1 m/s 623 mmHg 45%
    01:00 +14°C° 0 mm 1 m/s 623 mmHg 48%
    02:00 +13°C° 0 mm 1 m/s 623 mmHg 50%
    03:00 +13°C° 0 mm 1 m/s 622 mmHg 52%
    04:00 +12°C° 0 mm 1 m/s 622 mmHg 54%
    05:00 +13°C° 0 mm 1 m/s 623 mmHg 54%
    06:00 +13°C° 0 mm 1 m/s 623 mmHg 54%
    07:00 +14°C° 0 mm 1 m/s 624 mmHg 54%
    08:00 +17°C° 0 mm 2 m/s 625 mmHg 47%
    09:00 +20°C° 0 mm 3 m/s 626 mmHg 39%
    10:00 +23°C° 0 mm 4 m/s 627 mmHg 31%
    11:00 +25°C° 0 mm 3 m/s 626 mmHg 29%
    12:00 +26°C° 0 mm 3 m/s 626 mmHg 27%
    13:00 +27°C° 0 mm 2 m/s 626 mmHg 25%
    14:00 +27°C° 0 mm 2 m/s 625 mmHg 25%
    15:00 +27°C° 0 mm 2 m/s 625 mmHg 25%
    16:00 +26°C° 0 mm 2 m/s 624 mmHg 25%
    17:00 +24°C° 0 mm 2 m/s 624 mmHg 30%
    18:00 +21°C° 0 mm 1 m/s 624 mmHg 34%
    19:00 +18°C° 0 mm 1 m/s 623 mmHg 39%
    20:00 +18°C° 0 mm 1 m/s 623 mmHg 39%
    21:00 +18°C° 0 mm 1 m/s 624 mmHg 39%
    22:00 +16°C° 0 mm 1 m/s 624 mmHg 38%
    23:00 +15°C° 0 mm 1 m/s 623 mmHg 41%
    Arată mai mult